Flag for Canada Weather past 2 weeks in Yorkton, Saskatchewan, Canada

Now
39 °F

Mostly cloudy.


Feels Like: 32 °F
Forecast: 37 / 46 °F
Wind: 12 mph from Northwest

Location: Yorkton

Current Time: Apr 19, 2015 at 1:54:19 AM

Latest Report: Apr 19, 2015 at 1:00 AM


Visibility: 9 mi

Pressure: 29.95 "Hg

Humidity: 81%

Dew point: 34 °F

Location of YorktonLocation

Historic Weather in Yorkton — Graph

°F

Yorkton temperature yesterday

Maximum temperature yesterday: 61 °F (at 1:00 PM)
Minimum temperature yesterday: 39 °F (at 4:00 AM)
Average temperature yesterday: 48 °F

Past Weeks' High & Low Weather Summary

 TemperatureHumidityPressure
High70 °F (Apr 11, 3:00 PM)100% (Apr 4, 4:00 AM)30.27 "Hg (Apr 4, 4:00 AM)
Low16 °F (Apr 5, 5:00 AM)20% (Apr 13, 3:00 PM)29.36 "Hg (Apr 11, 7:00 PM)
Average40 °F61%29.98 "Hg
* Reported Apr 4 1:00 AM — Apr 19 1:00 AM, Yorkton, Weather by CustomWeather, © 2015

Note: Actual official high and low records may vary slightly from our data, if they occured in-between our weather recording intervals... More about our weather records

Advertising

Yorkton weather history for previous 24 hours

 ConditionsComfort  
Time TempWeatherWind HumidityBarometerVisibility
1:00 AM
Sun, Apr 19
39 °FMostly cloudy.12 mph81%29.95 "Hg9 mi
12:00 AM39 °FPassing clouds.12 mph81%29.95 "Hg9 mi
11:00 PM
Sat, Apr 18
39 °FPassing clouds.10 mph81%29.95 "Hg9 mi
10:00 PM39 °FClear.9 mph81%29.96 "Hg9 mi
9:00 PM43 °FClear.12 mph76%29.96 "Hg9 mi
8:00 PM46 °FClear.15 mph66%29.96 "Hg9 mi
7:00 PM50 °FPassing clouds.14 mph54%29.95 "Hg9 mi
6:00 PM54 °FSunny.22 mph47%29.94 "Hg9 mi
5:00 PM54 °FSunny.21 mph51%29.94 "Hg9 mi
4:00 PM59 °FPassing clouds.21 mph42%29.92 "Hg9 mi
3:00 PM59 °FPassing clouds.18 mph42%29.91 "Hg9 mi
2:00 PM61 °FSunny.21 mph36%29.91 "Hg9 mi
1:00 PM61 °FSunny.22 mph39%29.90 "Hg9 mi
12:00 PM55 °FSunny.10 mph47%29.91 "Hg9 mi
11:00 AM52 °FScattered clouds.13 mph47%29.92 "Hg9 mi
10:00 AM52 °FLight rain. Broken clouds.16 mph47%29.92 "Hg9 mi
9:48 AM52 °FLight rain. Broken clouds.17 mph47%29.90 "Hg9 mi
9:00 AM50 °FPassing clouds.17 mph50%29.90 "Hg9 mi
8:00 AM43 °FSunny.21 mph66%29.91 "Hg9 mi
7:00 AM39 °FScattered clouds.18 mph75%29.94 "Hg9 mi
6:00 AM39 °FSunny.15 mph70%29.97 "Hg9 mi
5:00 AM39 °FClear.14 mph70%30.01 "Hg9 mi
4:00 AM39 °FClear.16 mph75%30.02 "Hg9 mi
3:00 AM41 °FClear.16 mph76%30.04 "Hg9 mi
2:00 AM41 °FPassing clouds.17 mph70%30.09 "Hg9 mi
1:00 AM43 °FClear.15 mph71%30.13 "Hg9 mi
Weather by CustomWeather, © 2015

See weather overviewHow to use our weather pages